Telluride, CO

7:51 PM MDT on July 21, 2017 (GMT -0600)
Telluride Regional

Weather History for KTEX - May, 2011

Change the Weather History Date:

Friday, May 27, 2011

  Actual Average Record
Temperature  
Mean Temperature 53 °F -  
Max Temperature 62 °F 62 °F 69 °F (1998)
Min Temperature 44 °F 39 °F 32 °F (1997)
Degree Days  
Heating Degree Days 12    
Growing Degree Days 3 (Base 50)    
Moisture  
Dew Point 21 °F    
Average Humidity 28    
Maximum Humidity 46    
Minimum Humidity 18    
Precipitation  
Precipitation 0.00 in - - ()
Sea Level Pressure  
Sea Level Pressure 30.10 in    
Wind  
Wind Speed 6 mph (SW)    
Max Wind Speed 25 mph    
Max Gust Speed 34 mph    
Visibility 10 miles    
Events      
Averages and records for this station are not official NWS values.
T = Trace of Precipitation, MM = Missing Value Source: NWS Daily Summary

Daily Weather History Graph

Daily Weather History Graph

Search for Another Location

Airport or City:

Trip Planner

Search our weather history database for the weather conditions in past years. The results will help you decide how hot, cold, wet, or windy it might be!

Date:

Astronomy

May. 27, 2011 Rise Set
Actual Time 5:53 AM MDT 8:24 PM MDT
Civil Twilight 5:22 AM MDT 8:55 PM MDT
Nautical Twilight 4:45 AM MDT 9:33 PM MDT
Astronomical Twilight 4:03 AM MDT 10:15 PM MDT
Moon 2:39 AM MDT (5/27) 3:48 PM MDT (5/27)
Length of Visible Light 15h 32m
Length of Day
14h 31m
Waning Crescent, 23% of the Moon is Illuminated
May 27
Waning Crescent
Jun 1
New
Jun 8
First Quarter
Jun 15
Full
Jun 23
Last Quarter

Hourly Weather History & Observations

Time (MDT) Temp. Windchill Dew Point Humidity Pressure Visibility Wind Dir Wind Speed Gust Speed Precip Events Conditions
12:15 AM 51.8 °F - 17.6 °F 26% 30.10 in 10.0 mi West 4.6 mph - N/A   Clear
12:35 AM 51.8 °F - 17.6 °F 26% 30.10 in 10.0 mi WSW 3.5 mph - N/A   Clear
12:55 AM 51.8 °F - 17.6 °F 26% 30.10 in 10.0 mi WSW 8.1 mph - N/A   Clear
1:15 AM 51.8 °F - 17.6 °F 26% 30.09 in 10.0 mi Calm Calm - N/A   Clear
1:35 AM 51.8 °F - 17.6 °F 26% 30.09 in 10.0 mi WSW 5.8 mph - N/A   Clear
1:55 AM 50.0 °F - 19.4 °F 30% 30.09 in 10.0 mi Calm Calm - N/A   Clear
2:15 AM 48.2 °F - 19.4 °F 32% 30.09 in 10.0 mi Calm Calm - N/A   Clear
2:35 AM 50.0 °F - 19.4 °F 30% 30.09 in 10.0 mi Calm Calm - N/A   Clear
2:55 AM 48.2 °F - 21.2 °F 34% 30.09 in 10.0 mi Calm Calm - N/A   Clear
3:15 AM 46.4 °F - 21.2 °F 37% 30.09 in 10.0 mi Calm Calm - N/A   Clear
3:35 AM 48.2 °F - 19.4 °F 32% 30.09 in 10.0 mi Calm Calm - N/A   Clear
3:55 AM 48.2 °F - 19.4 °F 32% 30.09 in 10.0 mi Calm Calm - N/A   Clear
4:15 AM 46.4 °F - 19.4 °F 34% 30.09 in 10.0 mi Calm Calm - N/A   Clear
4:35 AM 46.4 °F 45.2 °F 21.2 °F 37% 30.09 in 10.0 mi ESE 3.5 mph - N/A   Clear
4:55 AM 46.4 °F - 21.2 °F 37% 30.10 in 10.0 mi Calm Calm - N/A   Clear
5:15 AM 44.6 °F - 19.4 °F 37% 30.10 in 10.0 mi Calm Calm - N/A   Clear
5:35 AM 46.4 °F - 19.4 °F 34% 30.10 in 10.0 mi Calm Calm - N/A   Clear
5:55 AM 44.6 °F - 23.0 °F 43% 30.10 in 10.0 mi Calm Calm - N/A   Clear
6:15 AM 44.6 °F 41.4 °F 23.0 °F 43% 30.10 in 10.0 mi SE 5.8 mph - N/A   Clear
6:35 AM 44.6 °F 42.2 °F 23.0 °F 43% 30.12 in 10.0 mi ESE 4.6 mph - N/A   Clear
6:55 AM 44.6 °F 42.2 °F 24.8 °F 46% 30.12 in 10.0 mi ESE 4.6 mph - N/A   Clear
7:15 AM 46.4 °F 45.2 °F 23.0 °F 40% 30.12 in 10.0 mi ESE 3.5 mph - N/A   Clear
7:35 AM 46.4 °F - 23.0 °F 40% 30.12 in 10.0 mi Calm Calm - N/A   Clear
7:55 AM 48.2 °F - 24.8 °F 40% 30.12 in 10.0 mi Calm Calm - N/A   Clear
8:15 AM 48.2 °F - 23.0 °F 37% 30.12 in 10.0 mi Calm Calm - N/A   Clear
8:35 AM 50.0 °F - 23.0 °F 35% 30.12 in 10.0 mi Calm Calm - N/A   Clear
8:55 AM 51.8 °F - 21.2 °F 30% 30.12 in 10.0 mi Calm Calm - N/A   Clear
9:15 AM 53.6 °F - 21.2 °F 28% 30.13 in 10.0 mi WSW 5.8 mph - N/A   Clear
9:55 AM 55.4 °F - 19.4 °F 25% 30.12 in 10.0 mi SSW 11.5 mph 19.6 mph N/A   Clear
10:15 AM 55.4 °F - 19.4 °F 25% 30.12 in 10.0 mi WSW 16.1 mph 21.9 mph N/A   Clear
10:35 AM 55.4 °F - 19.4 °F 25% 30.12 in 10.0 mi WSW 13.8 mph 21.9 mph N/A   Clear
10:55 AM 55.4 °F - 21.2 °F 26% 30.11 in 10.0 mi West 13.8 mph 20.7 mph N/A   Clear
11:15 AM 55.4 °F - 21.2 °F 26% 30.11 in 10.0 mi WNW 12.7 mph 25.3 mph N/A   Clear
11:35 AM 57.2 °F - 21.2 °F 25% 30.11 in 10.0 mi West 12.7 mph 28.8 mph N/A   Clear
11:55 AM 57.2 °F - 21.2 °F 25% 30.11 in 10.0 mi West 15.0 mph 23.0 mph N/A   Clear
12:15 PM 59.0 °F - 21.2 °F 23% 30.10 in 10.0 mi SW 9.2 mph 24.2 mph N/A   Clear
12:35 PM 59.0 °F - 21.2 °F 23% 30.10 in 10.0 mi WSW 15.0 mph 20.7 mph N/A   Clear
12:55 PM 59.0 °F - 19.4 °F 22% 30.09 in 10.0 mi SSW 20.7 mph 28.8 mph N/A   Clear
1:15 PM 60.8 °F - 19.4 °F 20% 30.09 in 10.0 mi WSW 16.1 mph 23.0 mph N/A   Clear
1:35 PM 60.8 °F - 21.2 °F 22% 30.09 in 10.0 mi South 11.5 mph 24.2 mph N/A   Clear
1:55 PM 60.8 °F - 19.4 °F 20% 30.09 in 10.0 mi West 10.4 mph 32.2 mph N/A   Clear
2:15 PM 62.6 °F - 21.2 °F 20% 30.09 in 10.0 mi SW 16.1 mph 25.3 mph N/A   Clear
2:35 PM 62.6 °F - 21.2 °F 20% 30.08 in 10.0 mi West 10.4 mph 19.6 mph N/A   Clear
2:55 PM 62.6 °F - 21.2 °F 20% 30.08 in 10.0 mi SSW 13.8 mph 34.5 mph N/A   Clear
3:15 PM 62.6 °F - 21.2 °F 20% 30.08 in 10.0 mi WSW 16.1 mph 23.0 mph N/A   Scattered Clouds
3:35 PM 62.6 °F - 21.2 °F 20% 30.07 in 10.0 mi SW 9.2 mph 23.0 mph N/A   Scattered Clouds
3:55 PM 62.6 °F - 19.4 °F 19% 30.08 in 10.0 mi SW 12.7 mph 28.8 mph N/A   Scattered Clouds
4:15 PM 62.6 °F - 21.2 °F 20% 30.08 in 10.0 mi SW 17.3 mph 28.8 mph N/A   Scattered Clouds
4:35 PM 62.6 °F - 21.2 °F 20% 30.08 in 10.0 mi West 16.1 mph 28.8 mph N/A   Scattered Clouds
4:55 PM 62.6 °F - 19.4 °F 19% 30.08 in 10.0 mi SW 25.3 mph 33.4 mph N/A   Scattered Clouds
5:15 PM 62.6 °F - 21.2 °F 20% 30.08 in 10.0 mi West 16.1 mph 27.6 mph N/A   Scattered Clouds
5:35 PM 62.6 °F - 19.4 °F 19% 30.07 in 10.0 mi SW 18.4 mph 34.5 mph N/A   Scattered Clouds
5:55 PM 62.6 °F - 17.6 °F 18% 30.08 in 10.0 mi SW 13.8 mph 33.4 mph N/A   Scattered Clouds
6:15 PM 62.6 °F - 19.4 °F 19% 30.07 in 10.0 mi West 15.0 mph 27.6 mph N/A   Clear
6:35 PM 62.6 °F - 19.4 °F 19% 30.07 in 10.0 mi SW 13.8 mph 23.0 mph N/A   Scattered Clouds
6:55 PM 62.6 °F - 19.4 °F 19% 30.07 in 10.0 mi South 9.2 mph 25.3 mph N/A   Scattered Clouds
7:15 PM 62.6 °F - 19.4 °F 19% 30.07 in 10.0 mi SW 13.8 mph 20.7 mph N/A   Scattered Clouds
7:35 PM 60.8 °F - 19.4 °F 20% 30.07 in 10.0 mi SW 11.5 mph 20.7 mph N/A   Scattered Clouds
7:55 PM 60.8 °F - 19.4 °F 20% 30.07 in 10.0 mi SW 12.7 mph 27.6 mph N/A   Scattered Clouds
8:15 PM 59.0 °F - 21.2 °F 23% 30.07 in 10.0 mi South 8.1 mph - N/A   Clear
8:35 PM 59.0 °F - 21.2 °F 23% 30.06 in 10.0 mi SSW 4.6 mph - N/A   Clear
8:55 PM 59.0 °F - 21.2 °F 23% 30.06 in 10.0 mi South 5.8 mph - N/A   Clear
9:15 PM 59.0 °F - 21.2 °F 23% 30.06 in 10.0 mi South 6.9 mph - N/A   Clear
9:35 PM 55.4 °F - 21.2 °F 26% 30.06 in 10.0 mi ESE 6.9 mph - N/A   Clear
9:55 PM 53.6 °F - 23.0 °F 30% 30.06 in 10.0 mi SE 6.9 mph - N/A   Scattered Clouds
10:15 PM 53.6 °F - 23.0 °F 30% 30.06 in 10.0 mi ESE 6.9 mph - N/A   Scattered Clouds
10:35 PM 53.6 °F - 23.0 °F 30% 30.06 in 10.0 mi SE 6.9 mph - N/A   Overcast
10:55 PM 51.8 °F - 23.0 °F 33% 30.05 in 10.0 mi ESE 6.9 mph - N/A   Overcast
11:15 PM 51.8 °F - 24.8 °F 35% 30.04 in 10.0 mi SE 6.9 mph - N/A   Overcast
11:35 PM 50.0 °F - 26.6 °F 40% 30.03 in 10.0 mi ESE 3.5 mph - N/A   Overcast
11:55 PM 51.8 °F - 26.6 °F 38% 30.03 in 10.0 mi ESE 5.8 mph - N/A   Overcast